Wind_Speed
15 14 14 16 17 15 13 10 10 10 9 8 7 6 7 5 2 2 2 2 1 2 3 11 12 11 11 10 11 13 12 12 12 11 13 13 11 23 22 23 24 26 25
14 13 14 16 14 12 9 9 9 9 7 6 6 7 8 7 5 3 3 2 1 5 3 6 8 16 14 12 12 13 12 11 12 14 14 12 11 20 22 23 24 25 24
13 12 14 13 11 9 8 7 9 8 5 6 5 6 7 9 5 3 2 4 3 5 9 5 8 11 14 16 13 14 14 14 15 16 9 9 15 19 15 21 25 21 22
11 13 12 10 9 6 6 8 9 8 5 6 5 6 8 9 4 3 2 6 4 8 2 9 8 9 17 16 15 15 17 16 17 14 11 13 14 15 13 16 24 22 20
12 10 10 8 6 6 6 7 8 7 6 6 5 6 9 6 2 3 4 4 1 5 8 3 3 5 22 20 12 17 20 19 19 17 18 14 12 13 11 23 22 23 21
11 10 9 5 6 7 6 6 6 6 7 6 7 8 7 4 4 4 4 5 4 10 6 8 3 4 16 21 12 14 18 15 16 19 15 12 10 11 14 18 20 28 24
10 10 7 7 8 7 5 4 4 5 6 5 7 7 5 4 3 3 3 4 5 4 7 5 5 4 13 18 14 16 17 17 18 15 12 10 10 10 7 22 22 16 17
10 8 7 9 10 7 4 2 3 3 7 6 8 8 4 3 3 3 3 2 1 1 3 7 2 1 14 20 22 19 17 18 18 17 15 12 13 12 8 24 14 18 27
10 6 8 11 11 7 5 3 2 1 6 7 8 8 6 5 5 5 4 3 1 1 1 6 3 5 11 19 26 21 19 19 21 20 18 19 14 17 12 22 27 29 25
9 7 10 10 9 7 4 3 2 2 2 4 8 7 6 5 5 5 3 2 2 1 1 2 3 6 9 13 16 28 24 17 22 20 20 16 17 24 28 27 30 27 27
10 9 10 10 8 6 5 4 3 3 3 7 9 9 7 6 6 5 2 0 1 3 4 2 3 6 6 14 17 23 23 22 22 20 14 24 34 30 28 32 27 24 21
11 10 10 10 7 5 3 3 4 3 5 8 11 10 9 7 6 4 2 2 2 3 5 4 6 6 8 13 21 22 22 25 20 22 28 35 34 37 24 30 27 27 25
12 11 10 9 6 4 3 3 2 2 6 13 15 10 9 8 6 4 5 5 6 6 6 7 9 9 5 12 20 23 23 21 26 30 31 31 34 25 34 35 27 24 23
13 13 11 10 7 5 3 2 3 3 5 12 16 14 10 6 3 3 3 3 7 12 10 7 12 7 8 12 17 21 24 27 22 22 31 32 33 33 26 26 23 21 17
14 14 12 10 8 5 4 4 6 5 6 12 18 15 11 7 3 3 4 9 11 13 12 13 14 12 8 19 26 26 26 26 26 30 27 29 27 25 25 25 22 20 16
15 15 13 10 8 6 4 3 7 6 8 12 17 18 13 10 8 9 10 13 11 13 13 13 12 15 16 20 24 19 23 26 31 31 25 26 25 25 24 22 20 17 16
15 14 14 11 8 7 7 5 7 9 10 14 14 12 14 14 13 13 14 14 16 17 17 15 13 14 13 18 20 21 21 23 26 28 29 27 24 23 21 19 18 17 15
16 15 14 12 9 8 8 8 7 9 12 14 15 16 14 13 14 16 16 17 17 16 16 16 15 13 15 22 21 21 22 24 29 29 27 25 23 21 19 17 16 16 16
17 16 16 14 11 9 8 9 10 10 10 13 14 13 11 9 10 12 15 17 17 16 17 17 18 18 19 20 19 20 20 21 23 22 20 19 19 18 18 18 17 17 18
16 15 14 14 13 10 8 7 7 8 9 9 10 11 9 7 7 8 10 11 12 14 15 15 15 16 18 19 19 19 19 20 21 21 20 20 20 20 19 19 20 21 23
16 16 15 13 13 12 11 10 9 8 7 7 7 9 10 11 12 11 9 8 8 9 9 10 12 13 14 14 15 17 19 20 20 21 22 22 23 23 22 23 25 26 27
17 16 14 13 12 12 12 11 10 10 10 10 10 10 10 9 9 8 9 10 10 10 10 10 11 12 14 15 16 17 17 18 18 19 20 22 24 25 26 27 28 29 30
18 16 16 14 12 11 11 10 9 8 9 10 12 12 11 11 11 11 10 11 10 10 11 12 12 13 14 16 17 18 19 19 20 22 24 25 27 28 29 30 31 31 32
20 20 20 17 15 12 10 9 9 9 7 6 6 7 8 9 10 11 12 13 14 15 16 16 16 16 16 17 18 19 19 19 21 23 25 26 27 28 30 31 32 32 33
23 22 25 26 23 20 18 16 13 12 11 10 9 8 6 5 5 6 8 10 12 13 14 16 18 20 21 21 21 21 22 22 24 24 27 29 30 31 32 33 34 34 35
29 28 28 26 27 26 25 24 22 21 20 19 19 18 17 17 16 16 16 15 14 14 13 14 15 16 19 22 23 24 24 24 25 26 28 31 33 34 34 35 36 36 35
Wind_Direction
257 248 260 277 277 278 278 271 275 272 270 270 263 244 220 215 236 315 305 319 207 181 230 230 223 221 220 239 220 218 211 203 198 191 202 199 224 206 197 192 190 194 197
238 249 272 277 281 279 273 272 265 262 255 265 256 230 214 229 264 309 344 273 301 241 233 231 223 218 220 217 209 193 186 189 185 189 201 170 174 165 189 189 195 196 196
238 262 271 277 279 273 278 267 264 244 241 248 233 228 220 235 250 259 296 164 28 275 256 249 260 226 201 196 183 188 186 177 169 171 188 170 155 155 153 180 196 188 181
247 266 271 270 261 264 249 257 249 244 237 231 229 225 229 230 229 245 239 199 347 328 248 263 233 217 200 196 195 192 188 178 174 182 181 158 156 165 157 160 162 165 175
254 259 258 249 248 224 239 248 232 227 230 226 216 202 224 222 231 236 238 216 35 324 352 313 261 212 191 183 193 192 188 181 181 187 162 157 156 161 173 165 151 167 167
248 245 239 227 217 221 228 231 220 211 220 230 201 197 220 208 218 232 233 234 226 1 346 6 316 101 169 169 155 166 179 187 185 182 184 180 167 160 163 175 191 181 164
234 230 222 205 212 213 207 200 203 202 216 218 189 190 218 218 211 229 226 244 252 281 339 8 17 171 178 174 169 173 170 174 174 184 183 192 182 170 161 167 154 172 186
216 217 207 200 200 184 128 125 171 201 218 207 198 201 210 227 182 192 168 197 186 274 334 3 21 107 189 178 179 180 171 165 164 163 172 170 173 196 179 172 159 160 148
203 199 199 189 184 151 116 116 132 167 239 222 209 212 206 221 181 160 154 176 145 5 317 10 344 93 155 180 191 177 170 171 165 160 170 167 171 172 190 167 158 156 151
191 195 186 179 173 167 181 176 178 162 255 237 198 204 200 209 176 159 164 184 164 140 151 25 49 76 146 155 174 189 180 173 175 179 174 170 172 153 147 147 149 147 148
190 194 189 175 170 181 203 219 238 238 253 209 198 193 184 184 176 146 150 170 171 189 155 155 114 77 122 155 164 177 191 184 173 174 181 158 148 147 149 156 151 147 152
190 193 187 173 171 181 202 238 244 228 237 196 182 182 172 172 179 183 193 230 243 211 163 168 142 101 80 152 158 169 162 181 178 165 155 152 149 153 155 157 154 161 157
191 188 175 152 157 165 194 214 235 208 181 178 178 181 176 173 194 248 271 253 217 194 171 160 146 139 116 135 159 162 169 170 160 159 157 159 158 159 153 162 164 160 163
190 184 164 144 143 149 154 71 68 98 139 169 178 178 176 173 191 284 281 172 183 184 169 164 152 137 110 136 141 153 146 146 147 148 160 166 159 160 165 169 163 164 166
186 185 160 146 149 154 157 107 89 101 127 148 159 162 156 159 117 63 117 132 127 136 160 166 167 156 142 143 137 139 148 158 155 152 151 159 166 168 165 163 166 168 172
187 184 157 149 154 157 155 120 83 80 135 147 155 154 159 136 113 96 117 139 136 149 157 158 146 134 137 151 152 136 152 164 162 163 164 160 162 165 166 169 175 178 185
183 183 157 157 160 154 151 136 101 82 105 144 151 150 147 139 132 115 103 116 131 134 132 137 133 142 149 154 163 165 160 156 160 160 161 165 168 172 176 180 187 193 201
179 179 157 164 165 159 153 142 129 115 106 122 144 150 148 137 132 122 115 111 116 128 138 143 146 140 142 159 162 168 168 161 160 164 168 172 178 184 189 194 202 206 214
181 176 162 166 173 175 166 157 150 143 143 134 139 151 154 141 133 128 126 128 129 126 124 127 132 141 151 158 161 163 167 171 177 179 181 185 193 200 204 209 217 225 232
185 180 170 171 179 185 188 176 165 161 158 168 164 158 157 153 142 143 145 142 142 144 147 147 147 149 154 160 166 172 174 180 184 190 197 203 211 217 219 225 232 239 245
185 187 179 184 183 182 191 194 192 187 187 185 190 175 167 167 161 162 164 163 165 165 166 169 174 178 182 186 189 192 194 198 203 206 211 216 222 227 230 235 239 245 249
179 189 186 185 194 194 189 195 198 203 207 209 212 207 197 193 190 188 182 179 183 189 193 196 199 202 205 208 212 218 223 225 228 233 236 238 239 241 243 245 248 252 257
183 187 186 192 196 197 197 191 191 198 210 217 227 230 221 215 214 211 210 212 213 217 221 222 220 219 222 225 230 232 233 233 234 237 241 246 250 254 257 259 260 262 264
197 194 189 186 184 182 187 185 178 175 175 191 213 230 236 230 226 228 230 233 234 233 232 232 233 235 237 237 239 242 243 242 244 247 249 249 250 252 255 258 261 264 266
202 219 213 197 195 188 185 185 185 193 199 203 203 203 209 215 217 217 221 229 235 243 250 255 255 251 248 246 247 248 249 250 251 252 254 257 258 259 260 262 264 266 268
222 208 225 221 210 208 207 207 208 208 212 214 216 215 211 212 212 211 215 217 219 224 227 235 244 252 258 258 256 255 256 257 258 258 259 260 260 262 264 267 268 271 273
Height
3040 3042 3043 3043 3043 3042 3042 3042 3041 3042 3043 3044 3044 3045 3047 3048 3047 3047 3046 3047 3048 3048 3049 3050 3052 3053 3055 3057 3058 3059 3062 3064 3067 3069 3071 3074 3075 3078 3083 3088 3092 3098 3103
3036 3038 3039 3039 3038 3038 3038 3038 3039 3040 3041 3042 3044 3044 3045 3047 3046 3046 3046 3046 3047 3047 3047 3048 3048 3050 3052 3054 3055 3058 3061 3064 3066 3068 3071 3073 3073 3075 3082 3087 3091 3097 3102
3034 3035 3035 3035 3034 3035 3035 3036 3037 3038 3040 3041 3042 3043 3044 3045 3045 3045 3045 3045 3045 3044 3044 3045 3045 3045 3048 3052 3054 3057 3061 3064 3066 3067 3067 3076 3076 3079 3081 3082 3087 3090 3101
3031 3031 3032 3032 3032 3033 3033 3035 3036 3037 3038 3039 3040 3042 3043 3043 3043 3044 3044 3044 3044 3042 3042 3040 3040 3042 3046 3049 3053 3056 3060 3064 3067 3069 3073 3077 3079 3082 3085 3090 3092 3096 3102
3028 3028 3029 3030 3030 3031 3033 3034 3035 3036 3037 3038 3039 3041 3041 3042 3042 3043 3043 3043 3043 3042 3040 3039 3038 3039 3044 3048 3052 3055 3060 3064 3067 3070 3074 3078 3080 3083 3086 3088 3093 3098 3102
3025 3026 3028 3028 3029 3031 3032 3033 3033 3034 3035 3036 3038 3040 3040 3040 3041 3042 3042 3042 3042 3041 3040 3039 3037 3039 3043 3047 3051 3053 3059 3065 3069 3072 3075 3079 3082 3085 3087 3090 3094 3099 3104
3024 3025 3025 3027 3029 3031 3031 3031 3032 3033 3034 3035 3038 3039 3040 3040 3041 3041 3041 3042 3042 3041 3041 3039 3038 3040 3044 3047 3051 3054 3059 3063 3068 3074 3078 3082 3084 3088 3090 3093 3098 3103 3106
3022 3023 3024 3027 3029 3030 3030 3030 3031 3032 3033 3035 3037 3038 3039 3040 3041 3040 3041 3042 3042 3041 3041 3039 3037 3038 3041 3047 3051 3056 3059 3064 3068 3073 3077 3081 3085 3088 3091 3096 3100 3105 3109
3022 3022 3025 3027 3029 3029 3029 3031 3031 3032 3033 3034 3036 3037 3039 3039 3040 3041 3041 3042 3041 3041 3041 3041 3040 3040 3042 3045 3050 3055 3060 3064 3068 3072 3076 3080 3084 3088 3092 3097 3102 3108 3112
3021 3023 3025 3027 3027 3028 3030 3031 3031 3031 3033 3034 3035 3037 3038 3039 3040 3041 3041 3042 3042 3042 3042 3042 3042 3042 3042 3045 3048 3054 3060 3065 3068 3072 3076 3080 3084 3088 3094 3100 3107 3110 3117
3020 3023 3025 3026 3026 3028 3029 3030 3030 3031 3032 3032 3034 3036 3037 3039 3040 3041 3042 3042 3042 3043 3043 3044 3044 3045 3045 3047 3050 3055 3061 3065 3069 3074 3077 3080 3085 3091 3097 3103 3108 3114 3118
3020 3023 3025 3025 3025 3027 3029 3029 3029 3029 3030 3031 3033 3035 3037 3039 3040 3041 3042 3042 3042 3043 3045 3045 3047 3048 3048 3050 3053 3056 3062 3066 3071 3074 3079 3083 3089 3094 3099 3105 3111 3113 3117
3020 3023 3024 3024 3025 3027 3028 3029 3028 3027 3028 3030 3033 3036 3038 3040 3041 3041 3041 3042 3042 3043 3045 3046 3049 3050 3052 3053 3055 3059 3064 3068 3073 3078 3083 3088 3093 3098 3102 3106 3111 3116 3120
3020 3023 3024 3024 3026 3028 3029 3029 3027 3026 3027 3028 3032 3036 3039 3040 3041 3041 3040 3040 3040 3043 3046 3048 3050 3053 3054 3056 3059 3063 3068 3074 3079 3082 3085 3090 3095 3100 3105 3110 3115 3119 3123
3020 3023 3023 3025 3028 3029 3030 3031 3029 3028 3028 3029 3032 3036 3039 3041 3042 3042 3041 3041 3042 3044 3048 3050 3052 3055 3057 3060 3063 3068 3072 3077 3082 3086 3092 3096 3100 3104 3108 3113 3117 3120 3123
3019 3022 3023 3026 3029 3030 3031 3032 3032 3031 3030 3032 3035 3037 3039 3041 3043 3043 3043 3045 3046 3048 3051 3054 3056 3059 3062 3066 3069 3072 3076 3080 3085 3090 3094 3099 3103 3106 3111 3115 3117 3120 3122
3019 3022 3023 3027 3030 3032 3033 3034 3034 3035 3034 3036 3038 3041 3042 3044 3046 3046 3047 3048 3050 3052 3054 3057 3060 3063 3066 3069 3073 3077 3081 3083 3087 3092 3096 3100 3105 3108 3111 3114 3117 3119 3121
3019 3022 3024 3028 3031 3033 3035 3036 3037 3038 3039 3039 3041 3044 3046 3047 3048 3049 3051 3053 3054 3056 3057 3060 3063 3065 3069 3073 3077 3080 3083 3087 3090 3093 3098 3102 3105 3109 3112 3114 3116 3118 3119
3019 3021 3023 3028 3031 3033 3035 3037 3038 3040 3042 3043 3045 3048 3050 3052 3053 3054 3054 3056 3058 3060 3062 3064 3066 3069 3072 3075 3078 3082 3086 3090 3093 3097 3100 3102 3105 3107 3110 3112 3113 3115 3116
3019 3021 3024 3027 3030 3033 3036 3038 3040 3041 3043 3046 3047 3049 3052 3054 3057 3058 3059 3060 3061 3063 3065 3068 3070 3072 3075 3077 3080 3083 3086 3089 3092 3095 3098 3100 3102 3105 3107 3109 3111 3111 3112
3018 3021 3023 3027 3029 3032 3035 3038 3040 3042 3044 3046 3048 3050 3051 3053 3056 3058 3060 3062 3064 3065 3067 3069 3072 3074 3076 3079 3082 3084 3086 3088 3091 3093 3095 3097 3099 3101 3103 3104 3105 3106 3106
3016 3019 3022 3025 3029 3032 3034 3037 3039 3041 3043 3046 3048 3050 3052 3054 3056 3059 3060 3062 3064 3066 3067 3069 3072 3074 3076 3078 3080 3082 3084 3087 3089 3091 3093 3094 3095 3096 3097 3098 3098 3099 3099
3013 3017 3020 3024 3028 3031 3034 3035 3037 3039 3042 3044 3046 3049 3052 3054 3056 3058 3060 3061 3063 3065 3066 3068 3070 3072 3074 3075 3077 3079 3081 3083 3085 3085 3087 3088 3089 3090 3091 3091 3091 3090 3090
3010 3013 3017 3021 3024 3028 3032 3035 3036 3038 3040 3042 3044 3046 3049 3051 3053 3056 3057 3059 3061 3062 3064 3066 3068 3069 3071 3072 3074 3075 3077 3078 3079 3080 3081 3081 3081 3082 3082 3082 3082 3082 3082
3008 3010 3013 3015 3019 3023 3026 3030 3033 3036 3037 3039 3041 3043 3045 3047 3050 3052 3053 3054 3056 3058 3059 3061 3062 3064 3065 3067 3068 3070 3071 3072 3073 3074 3074 3074 3074 3074 3074 3074 3074 3074 3073
3001 3006 3010 3012 3015 3018 3021 3023 3026 3028 3031 3033 3036 3038 3039 3040 3042 3044 3045 3047 3049 3050 3051 3052 3054 3056 3057 3058 3060 3061 3062 3064 3064 3065 3065 3064 3064 3064 3065 3064 3064 3064 3063